Home   Weather   Ilmenau   Past weeks

Flag for Germany Past Weather in Ilmenau, Thuringia, Germany — Yesterday and Last 2 Weeks

41 °F

Drizzle. Mostly cloudy.

Feels Like: 36 °F
Forecast: 35 / 46 °F
Wind: 7 mph from Southwest

Location: Erfurt-Bindersleben

Current Time: Oct 22, 2016 at 9:06:58 AM

Latest Report: Oct 22, 2016 at 8:20 AM

Visibility: 4 mi

Pressure: 29.86 "Hg

Humidity: 93%

Dew Point: 39 °F

Location of IlmenauLocation

Past Weather in Ilmenau — Graph


Ilmenau Temperature Yesterday

Maximum temperature yesterday: 45 °F (at 11:20 AM)
Minimum temperature yesterday: 39 °F (at 8:20 AM)
Average temperature yesterday: 42 °F

High & Low Weather Summary for the Past Weeks

High63 °F (Oct 16, 1:20 PM)100% (Oct 7, 7:20 AM)30.27 "Hg (Oct 7, 7:20 AM)
Low39 °F (Oct 9, 7:50 AM)62% (Oct 9, 2:20 PM)29.74 "Hg (Oct 15, 1:20 AM)
Average46 °F91%30.06 "Hg
* Reported Oct 7 7:20 AM — Oct 22 7:50 AM, Ilmenau, Weather by CustomWeather, © 2016

Note: Actual official high and low records may vary slightly from our data, if they occured in-between our weather recording intervals... More about our weather records


Ilmenau Weather History for the Previous 24 Hours

Scroll right to see more
Time TempWeatherWind HumidityBarometerVisibility
7:50 AM
Sat, Oct 22
41 °FDrizzle. Mostly cloudy.5 mph93%29.86 "Hg4 mi
7:20 AM41 °FDrizzle. Fog.2 mph100%29.86 "Hg3 mi
6:50 AM41 °FDrizzle. Fog.3 mph93%29.86 "Hg3 mi
6:20 AM41 °FPassing clouds.5 mph93%29.86 "HgN/A
5:50 AM41 °FLight rain. Passing clouds.5 mph93%29.86 "HgN/A
5:20 AM39 °FRain. Passing clouds.5 mph100%29.86 "Hg5 mi
4:50 AM41 °FLight rain. Passing clouds.8 mph93%29.86 "HgN/A
4:20 AM41 °FLight rain. Partly cloudy.3 mph93%29.86 "Hg5 mi
3:50 AM41 °FLight rain. Partly cloudy.5 mph93%29.89 "HgN/A
3:20 AM41 °FLight rain. Passing clouds.6 mph93%29.89 "HgN/A
2:20 AM41 °FLight rain. Passing clouds.3 mph93%29.92 "HgN/A
1:50 AM41 °FLight rain. Partly cloudy.6 mph93%29.92 "HgN/A
1:20 AM41 °FPassing clouds.6 mph87%29.92 "HgN/A
12:50 AM41 °FPartly cloudy.5 mph93%29.92 "HgN/A
12:20 AM41 °FClear.6 mph87%29.92 "Hg10 mi
11:50 PM
Fri, Oct 21
41 °FClear.7 mph93%29.92 "Hg10 mi
11:20 PM39 °FPassing clouds.7 mph93%29.92 "HgN/A
10:50 PM41 °FPassing clouds.9 mph87%29.92 "HgN/A
10:20 PM41 °FPartly cloudy.7 mph93%29.92 "HgN/A
9:50 PM41 °FLight rain. Partly cloudy.7 mph93%29.92 "HgN/A
9:20 PM43 °FLight rain. Partly cloudy.6 mph87%29.92 "HgN/A
8:50 PM43 °FPassing clouds.7 mph87%29.92 "HgN/A
8:20 PM43 °FPassing clouds.7 mph87%29.92 "HgN/A
7:50 PM43 °FLight rain. Passing clouds.6 mph87%29.92 "HgN/A
7:20 PM43 °FQuite cool.7 mph87%29.92 "HgN/A
6:50 PM43 °FPassing clouds.7 mph87%29.92 "HgN/A
6:20 PM43 °FPartly cloudy.10 mph87%29.92 "HgN/A
5:50 PM43 °FPartly sunny.8 mph87%29.92 "HgN/A
5:20 PM45 °FPartly sunny.10 mph81%29.92 "HgN/A
4:50 PM45 °FPartly sunny.12 mph81%29.92 "HgN/A
4:20 PM45 °FPartly sunny.13 mph81%29.92 "HgN/A
3:50 PM45 °FBroken clouds.15 mph81%29.89 "HgN/A
3:20 PM45 °FBroken clouds.13 mph81%29.89 "HgN/A
2:50 PM45 °FBroken clouds.12 mph81%29.89 "HgN/A
2:20 PM45 °FScattered clouds.13 mph81%29.89 "HgN/A
1:50 PM45 °FPartly sunny.13 mph87%29.92 "HgN/A
1:20 PM45 °FSprinkles. Broken clouds.12 mph81%29.92 "HgN/A
12:50 PM45 °FPartly sunny.10 mph81%29.92 "HgN/A
12:20 PM45 °FBroken clouds.9 mph81%29.92 "HgN/A
11:50 AM45 °FBroken clouds.10 mph87%29.92 "HgN/A
11:20 AM45 °FPartly sunny.12 mph81%29.92 "HgN/A
10:50 AM43 °FPartly sunny.10 mph87%29.89 "HgN/A
10:20 AM41 °FLight rain. Partly sunny.9 mph93%29.89 "HgN/A
9:50 AM41 °FMore clouds than sun.8 mph93%29.89 "HgN/A
9:20 AM41 °FLight rain. More clouds than sun.7 mph93%29.89 "HgN/A
Weather by CustomWeather, © 2016

See weather overviewHow to use our weather pages